Mt Hood
Timberline - Magic Mile Chair
Latest observation 08/31 19:00 PDT
| Time (PDT) | Temp °F 6990' | RH % 6990' | Min mph 6990' | Spd mph 6990' | Gust mph 6990' | Dir ° 6990' |
|---|---|---|---|---|---|---|
| 08/31 19:00 | 61 | 40 | 0 | 3 | 13 | -7999 |
| 08/31 18:00 | 63 | 41 | 0 | 10 | 19 | -7999 |
| 08/31 17:00 | 65 | 33 | 0 | 7 | 16 | -7999 |
| 08/31 16:00 | 63 | 30 | 0 | 8 | 20 | -7999 |
| 08/31 15:00 | 64 | 28 | 0 | 9 | 17 | -7999 |
| 08/31 14:00 | 64 | 25 | 0 | 7 | 18 | -7999 |
| 08/31 13:00 | 64 | 23 | 0 | 6 | 15 | -7999 |
| 08/31 12:00 | 61 | 25 | 3 | 9 | 16 | 119 |
| 08/31 11:00 | 59 | 24 | 0 | 11 | 21 | 114 |
| 08/31 10:00 | 58 | 25 | 5 | 12 | 21 | 114 |
| 08/31 09:00 | 57 | 26 | 6 | 13 | 24 | 98 |
| 08/31 08:00 | 55 | 28 | 4 | 10 | 17 | 101 |
| 08/31 07:00 | 52 | 33 | 2 | 10 | 17 | 98 |
| 08/31 06:00 | 52 | 36 | 4 | 8 | 16 | 106 |
| 08/31 05:00 | 52 | 32 | 5 | 9 | 12 | 100 |
| 08/31 04:00 | 51 | 34 | 3 | 8 | 11 | 102 |
| 08/31 03:00 | 50 | 43 | 7 | 9 | 13 | 105 |
| 08/31 02:00 | 50 | 57 | 3 | 9 | 14 | 105 |
| 08/31 01:00 | 54 | 44 | 0 | 2 | 6 | 105 |
| 08/31 00:00 | 52 | 52 | 1 | 5 | 10 | 109 |
| 08/30 23:00 | 52 | 53 | 5 | 8 | 10 | 101 |
| 08/30 22:00 | 51 | 58 | 6 | 8 | 12 | 101 |
| 08/30 21:00 | 51 | 60 | 0 | 3 | 9 | 106 |
| 08/30 20:00 | 53 | 54 | 0 | 0 | 2 | 108 |
| 08/30 19:00 | 53 | 56 | 0 | 0 | 4 | 117 |
| 08/30 18:00 | 56 | 54 | 0 | 4 | 12 | 118 |
| 08/30 17:00 | 56 | 51 | 0 | 7 | 15 | 110 |
| 08/30 16:00 | 57 | 53 | 0 | 8 | 19 | 101 |
| 08/30 15:00 | 56 | 55 | 0 | 9 | 19 | 101 |
| 08/30 14:00 | 55 | 53 | 2 | 10 | 19 | 105 |
| 08/30 13:00 | 57 | 46 | 0 | 7 | 17 | 106 |
| 08/30 12:00 | 55 | 49 | 0 | 5 | 19 | 109 |
| 08/30 11:00 | 54 | 50 | 0 | 2 | 9 | 106 |
| 08/30 10:00 | 52 | 37 | 0 | 1 | 13 | 102 |
| 08/30 09:00 | 51 | 33 | 0 | 0 | 5 | 91 |
| 08/30 08:00 | 47 | 36 | 0 | 0 | 0 | 91 |
| 08/30 07:00 | 41 | 39 | 0 | 0 | 2 | 91 |
| 08/30 06:00 | 41 | 35 | 0 | 1 | 7 | 99 |
| 08/30 05:00 | 42 | 38 | 0 | 8 | 16 | 106 |
| 08/30 04:00 | 43 | 33 | 3 | 10 | 19 | 98 |
| 08/30 03:00 | 43 | 28 | 8 | 14 | 22 | 101 |
| 08/30 02:00 | 42 | 31 | 7 | 15 | 25 | 90 |
| 08/30 01:00 | 37 | 62 | 12 | 19 | 29 | 98 |
| 08/30 00:00 | 36 | 69 | 15 | 22 | 32 | 86 |
| 08/29 23:00 | 35 | 67 | 11 | 18 | 34 | 83 |
| 08/29 22:00 | 35 | 93 | 12 | 19 | 30 | 86 |
| 08/29 21:00 | 36 | 95 | 13 | 22 | 32 | 83 |
| 08/29 20:00 | 36 | 95 | 16 | 24 | 34 | 70 |
| 08/29 19:00 | 37 | 97 | 15 | 24 | 39 | 72 |
| 08/29 18:00 | 37 | 97 | 16 | 28 | 43 | 76 |
| 08/29 17:00 | 37 | 97 | 17 | 27 | 40 | 67 |
| 08/29 16:00 | 37 | 96 | 17 | 28 | 40 | 67 |
| 08/29 15:00 | 37 | 97 | 18 | 27 | 35 | 68 |
| 08/29 14:00 | 37 | 97 | 19 | 27 | 37 | 64 |
| 08/29 13:00 | 36 | 98 | 21 | 29 | 39 | 64 |
| 08/29 12:00 | 35 | 99 | 21 | 29 | 49 | 61 |
| 08/29 11:00 | 34 | 99 | 20 | 29 | 42 | 60 |
| 08/29 10:00 | 33 | 99 | 22 | 33 | 48 | 61 |
| 08/29 09:00 | 34 | 98 | 21 | 33 | 50 | 52 |
| 08/29 08:00 | 35 | 99 | 20 | 30 | 41 | 81 |
| 08/29 07:00 | 35 | 98 | 21 | 29 | 40 | 85 |
| 08/29 06:00 | 34 | 95 | 20 | 30 | 43 | 85 |
| 08/29 05:00 | 34 | 84 | 17 | 27 | 46 | 86 |
| 08/29 04:00 | 36 | 92 | 17 | 27 | 40 | 85 |
| 08/29 03:00 | 38 | 91 | 17 | 27 | 43 | 82 |
| 08/29 02:00 | 39 | 92 | 17 | 29 | 41 | 81 |
| 08/29 01:00 | 40 | 94 | 16 | 29 | 43 | 91 |
| 08/29 00:00 | 40 | 92 | 18 | 25 | 39 | 91 |
| 08/28 23:00 | 41 | 87 | 15 | 25 | 36 | 95 |
| 08/28 22:00 | 42 | 84 | 16 | 23 | 33 | 96 |
| 08/28 21:00 | 44 | 76 | 17 | 23 | 33 | 94 |
| 08/28 20:00 | 47 | 54 | 13 | 19 | 28 | 100 |
| 08/28 19:00 | 51 | 41 | 12 | 18 | 26 | 109 |
| 08/28 18:00 | 53 | 42 | 11 | 17 | 25 | 115 |
| 08/28 17:00 | 54 | 53 | 9 | 15 | 27 | 114 |
| 08/28 16:00 | 56 | 48 | 6 | 15 | 25 | 119 |
| 08/28 15:00 | 56 | 50 | 4 | 15 | 25 | 118 |
| 08/28 14:00 | 58 | 52 | 4 | 14 | 25 | 116 |
| 08/28 13:00 | 59 | 47 | 3 | 12 | 22 | 117 |
| 08/28 12:00 | 61 | 36 | 3 | 9 | 21 | 117 |
| 08/28 11:00 | 61 | 27 | 0 | 9 | 18 | 107 |
| 08/28 10:00 | 61 | 27 | 0 | 7 | 17 | 110 |
| 08/28 09:00 | 60 | 28 | 0 | 2 | 15 | 91 |
| 08/28 08:00 | 54 | 33 | 0 | 0 | 0 | 94 |
| 08/28 07:00 | 46 | 39 | 0 | 4 | 8 | -7999 |
| 08/28 06:00 | 47 | 34 | 0 | 5 | 8 | 90 |
| 08/28 05:00 | 47 | 33 | 4 | 8 | 13 | -7999 |
| 08/28 04:00 | 48 | 35 | 4 | 9 | 13 | 101 |
| 08/28 03:00 | 48 | 29 | 6 | 11 | 16 | 102 |
| 08/28 02:00 | 49 | 35 | 8 | 12 | 19 | 101 |
| 08/28 01:00 | 50 | 30 | 7 | 13 | 21 | 90 |
| 08/28 00:00 | 47 | 35 | 10 | 15 | 20 | 94 |
| 08/27 23:00 | 48 | 42 | 12 | 18 | 28 | 93 |
| 08/27 22:00 | 49 | 41 | 13 | 21 | 30 | 95 |
| 08/27 21:00 | 49 | 42 | 14 | 22 | 30 | 95 |
| 08/27 20:00 | 49 | 43 | 18 | 25 | 32 | 100 |
| 08/27 19:00 | 51 | 44 | 16 | 22 | 30 | 102 |
| 08/27 18:00 | 52 | 50 | 15 | 22 | 31 | 104 |
| 08/27 17:00 | 53 | 42 | 9 | 20 | 31 | 110 |
| 08/27 16:00 | 54 | 48 | 9 | 20 | 37 | 110 |
| 08/27 15:00 | 53 | 55 | 11 | 21 | 33 | 109 |
| 08/27 14:00 | 54 | 54 | 6 | 18 | 34 | 110 |
| 08/27 13:00 | 55 | 47 | 3 | 17 | 28 | 112 |
| 08/27 12:00 | 54 | 52 | 8 | 17 | 30 | 112 |
| 08/27 11:00 | 52 | 64 | 9 | 18 | 35 | 101 |
| 08/27 10:00 | 51 | 68 | 6 | 17 | 27 | 102 |
| 08/27 09:00 | 54 | 54 | 8 | 16 | 27 | 90 |
| 08/27 08:00 | 49 | 69 | 4 | 14 | 28 | 86 |
| 08/27 07:00 | 46 | 81 | 4 | 13 | 22 | 99 |
| 08/27 06:00 | 46 | 90 | 6 | 15 | 28 | 100 |
| 08/27 05:00 | 47 | 92 | 5 | 14 | 33 | 96 |
| 08/27 04:00 | 49 | 87 | 1 | 9 | 16 | 108 |
| 08/27 03:00 | 51 | 79 | 0 | 9 | 20 | 106 |
| 08/27 02:00 | 52 | 72 | 1 | 14 | 29 | 104 |
| 08/27 01:00 | 51 | 75 | 0 | 9 | 25 | 100 |
| 08/27 00:00 | 50 | 84 | 4 | 14 | 27 | 100 |
| 08/26 23:00 | 51 | 79 | 9 | 22 | 38 | 100 |
| 08/26 22:00 | 51 | 75 | 13 | 24 | 38 | -7999 |
| 08/26 21:00 | 51 | 75 | 13 | 24 | 39 | 109 |
| 08/26 20:00 | 54 | 63 | 8 | 21 | 44 | 120 |
| 08/26 19:00 | 57 | 50 | 4 | 18 | 32 | 134 |
| 08/26 18:00 | 59 | 40 | 4 | 13 | 33 | 143 |
| 08/26 17:00 | 60 | 42 | 3 | 13 | 24 | 139 |
| 08/26 16:00 | 63 | 45 | 0 | 10 | 29 | 129 |
| 08/26 15:00 | 64 | 39 | 0 | 10 | 26 | 122 |
| 08/26 14:00 | 66 | 32 | 0 | 7 | 26 | 124 |
| 08/26 13:00 | 66 | 31 | 0 | 10 | 25 | 122 |
| 08/26 12:00 | 66 | 30 | 0 | 7 | 20 | 113 |
| 08/26 11:00 | 65 | 21 | 0 | 8 | 20 | 125 |
| 08/26 10:00 | 65 | 21 | 0 | 6 | 19 | 123 |
| 08/26 09:00 | 66 | 17 | 0 | 1 | 9 | 102 |
| 08/26 08:00 | 63 | 18 | 0 | 1 | 5 | 102 |
| 08/26 07:00 | 56 | 27 | 0 | 2 | 9 | 105 |
| 08/26 06:00 | 56 | 25 | 0 | 1 | 5 | 101 |
| 08/26 05:00 | 57 | 28 | 0 | 0 | 3 | 107 |
| 08/26 04:00 | 57 | 27 | 0 | 0 | 4 | 102 |
| 08/26 03:00 | 57 | 26 | 0 | 2 | 10 | 108 |
| 08/26 02:00 | 58 | 25 | 0 | 3 | 9 | 97 |
| 08/26 01:00 | 58 | 32 | 0 | 3 | 12 | 100 |
| 08/26 00:00 | 58 | 30 | 0 | 6 | 15 | 105 |
| 08/25 23:00 | 58 | 26 | 4 | 10 | 16 | 104 |
| 08/25 22:00 | 58 | 23 | 7 | 14 | 25 | 104 |
| 08/25 21:00 | 59 | 27 | 6 | 16 | 27 | 112 |
| 08/25 20:00 | 60 | 28 | 7 | 14 | 27 | 124 |
| 08/25 19:00 | 63 | 37 | 4 | 12 | 24 | 133 |
| 08/25 18:00 | 65 | 40 | 2 | 10 | 19 | 136 |
| 08/25 17:00 | 68 | 35 | 0 | 8 | 18 | 137 |
| 08/25 16:00 | 69 | 37 | 0 | 8 | 19 | 122 |
| 08/25 15:00 | 70 | 33 | 0 | 9 | 25 | 122 |
| 08/25 14:00 | 71 | 30 | 0 | 9 | 28 | 128 |
| 08/25 13:00 | 71 | 31 | 0 | 9 | 21 | 125 |
| 08/25 12:00 | 71 | 30 | 0 | 7 | 24 | 126 |
| 08/25 11:00 | 69 | 30 | 0 | 6 | 14 | 127 |
| 08/25 10:00 | 70 | 31 | 0 | 7 | 17 | 135 |
| 08/25 09:00 | 65 | 33 | 6 | 12 | 19 | 121 |
| 08/25 08:00 | 62 | 35 | 11 | 17 | 23 | 202 |
| 08/25 07:00 | 60 | 34 | 12 | 16 | 24 | 260 |
| 08/25 06:00 | 61 | 28 | 7 | 12 | 19 | 257 |
| 08/25 05:00 | 61 | 30 | 7 | 10 | 13 | 272 |
| 08/25 04:00 | 61 | 31 | 7 | 10 | 13 | 269 |
| 08/25 03:00 | 61 | 33 | 7 | 12 | 17 | 261 |
| 08/25 02:00 | 60 | 36 | 6 | 12 | 19 | 244 |
| 08/25 01:00 | 60 | 43 | 0 | 2 | 7 | 253 |
| 08/25 00:00 | 61 | 42 | 0 | 0 | 0 | 250 |
| 08/24 23:00 | 61 | 41 | 0 | 1 | 3 | 253 |
| 08/24 22:00 | 62 | 41 | 0 | 0 | 0 | 241 |
| 08/24 21:00 | 63 | 40 | 0 | 0 | 0 | 242 |
| 08/24 20:00 | 64 | 42 | 0 | 0 | 5 | 267 |

